Casement Aerodrome, Ireland

5:56 PM GMT on February 24, 2017 (GMT +0000)
Casement Air Base

Weather History for EIME - December, 2013

Change the Weather History Date:

Monday, December 2, 2013

  Actual Average (EIDW) Record (EIDW)
Temperature  
Mean Temperature 44 °F -  
Max Temperature 46 °F 45 °F 55 °F (2015)
Min Temperature 41 °F 35 °F 21 °F (2010)
Degree Days  
Heating Degree Days 22    
Moisture  
Dew Point 42 °F    
Average Humidity 90    
Maximum Humidity 100    
Minimum Humidity 81    
Precipitation  
Precipitation 0.00 in - - ()
Sea Level Pressure  
Sea Level Pressure 30.48 in    
Wind  
Wind Speed 4 mph ()    
Max Wind Speed 10 mph    
Max Gust Speed -    
Visibility 6.8 miles    
Events      
Averages and records for this station are not official NWS values.
T = Trace of Precipitation, MM = Missing Value Source: Averaged Metar Reports

Daily Weather History Graph

Daily Weather History Graph

Search for Another Location

Airport or City:

Trip Planner

Search our weather history database for the weather conditions in past years. The results will help you decide how hot, cold, wet, or windy it might be!

Date:

Astronomy

Dec. 02, 2013 Rise Set
Actual Time 8:19 AM GMT 4:10 PM GMT
Civil Twilight 7:37 AM GMT 4:52 PM GMT
Nautical Twilight 6:53 AM GMT 5:36 PM GMT
Astronomical Twilight 6:11 AM GMT 6:18 PM GMT
Moon 7:22 AM GMT (12/2) 4:06 PM GMT (12/2)
Length of Visible Light 9h 14m
Length of Day
7h 51m
Waning Crescent, 0% of the Moon is Illuminated
Dec 2
Waning Crescent
Dec 3
New
Dec 9
First Quarter
Dec 17
Full
Dec 25
Last Quarter

Hourly Weather History & Observations

Time (GMT) Temp. Windchill Dew Point Humidity Pressure Visibility Wind Dir Wind Speed Gust Speed Precip Events Conditions
12:00 AM 44 °F - 42 °F 91% 30.58 in 19 mi WNW 2.2 mph - -   Mostly Cloudy
12:00 AM 44.6 °F - 42.8 °F 93% 30.57 in 6.2 mi West 1.2 mph - N/A   Mostly Cloudy
1:00 AM 44.6 °F 42.2 °F 42.8 °F 93% 30.57 in 6.2 mi SW 4.6 mph - N/A   Mostly Cloudy
2:00 AM 44.6 °F 42.2 °F 42.8 °F 93% 30.54 in 6.2 mi SW 4.6 mph - N/A   Mostly Cloudy
3:00 AM 42.8 °F - 41.0 °F 93% 30.54 in 6.2 mi WSW 1.2 mph - N/A   Mostly Cloudy
4:00 AM 42.8 °F 40.1 °F 42.8 °F 100% 30.51 in 6.2 mi WSW 4.6 mph - N/A   Mostly Cloudy
5:00 AM 44.6 °F 43.1 °F 42.8 °F 93% 30.51 in 6.2 mi South 3.5 mph - N/A   Mostly Cloudy
6:00 AM 43 °F - 43 °F 98% 30.51 in 25 mi South 6.7 mph - -   Mostly Cloudy
6:00 AM 42.8 °F 39.3 °F 42.8 °F 100% 30.48 in 6.2 mi South 5.8 mph - N/A   Mostly Cloudy
7:00 AM 42.8 °F 41.1 °F 42.8 °F 100% 30.48 in 6.2 mi SSW 3.5 mph - N/A   Mostly Cloudy
7:30 AM 42.8 °F 40.1 °F 41.0 °F 93% 30.51 in 6.2 mi South 4.6 mph - N/A   Mostly Cloudy
8:00 AM 42.8 °F 40.1 °F 39.2 °F 87% 30.51 in 6.2 mi SSE 4.6 mph - N/A   Mostly Cloudy
8:30 AM 42.8 °F 39.3 °F 39.2 °F 87% 30.51 in 6.2 mi SE 5.8 mph - N/A   Mostly Cloudy
9:00 AM 42.8 °F - 39.2 °F 87% 30.51 in 6.2 mi West 2.3 mph - N/A   Scattered Clouds
9:30 AM 42.8 °F - 41.0 °F 93% 30.51 in 6.2 mi West 2.3 mph - N/A   Mostly Cloudy
10:00 AM 44.6 °F - 42.8 °F 93% 30.51 in 6.2 mi SSW 1.2 mph - N/A   Mostly Cloudy
10:30 AM 46.4 °F - 41.0 °F 81% 30.51 in 6.2 mi NE 2.3 mph - N/A   Mostly Cloudy
11:00 AM 46.4 °F 43.5 °F 42.8 °F 87% 30.51 in 6.2 mi WNW 5.8 mph - N/A   Mostly Cloudy
11:30 AM 44.6 °F 43.1 °F 42.8 °F 93% 30.51 in 6.2 mi West 3.5 mph - N/A   Mostly Cloudy
12:00 PM 45 °F - 44 °F 93% 30.51 in 22 mi West 4.5 mph - -   Mostly Cloudy
12:00 PM 44.6 °F 42.2 °F 44.6 °F 100% 30.48 in 6.2 mi West 4.6 mph - N/A   Mostly Cloudy
12:30 PM 46.4 °F 42.9 °F 44.6 °F 93% 30.48 in 6.2 mi WSW 6.9 mph - N/A   Mostly Cloudy
1:00 PM 46.4 °F 43.5 °F 42.8 °F 87% 30.48 in 6.2 mi SW 5.8 mph - N/A   Mostly Cloudy
1:30 PM 46.4 °F 43.5 °F 42.8 °F 87% 30.45 in 6.2 mi South 5.8 mph - N/A   Mostly Cloudy
2:00 PM 46.4 °F 44.3 °F 42.8 °F 87% 30.45 in 6.2 mi SSW 4.6 mph - N/A   Mostly Cloudy
2:30 PM 46.4 °F 44.3 °F 42.8 °F 87% 30.45 in 6.2 mi South 4.6 mph - N/A   Mostly Cloudy
3:00 PM 46.4 °F 44.3 °F 42.8 °F 87% 30.45 in 6.2 mi SSW 4.6 mph - N/A   Mostly Cloudy
3:30 PM 46.4 °F 45.2 °F 42.8 °F 87% 30.45 in 6.2 mi SSW 3.5 mph - N/A   Mostly Cloudy
4:00 PM 46.4 °F 44.3 °F 42.8 °F 87% 30.45 in 6.2 mi SW 4.6 mph - N/A   Mostly Cloudy
5:00 PM 46.4 °F 42.9 °F 42.8 °F 87% 30.42 in 6.2 mi SW 6.9 mph - N/A   Mostly Cloudy
6:00 PM 46 °F - 43 °F 84% 30.45 in 16 mi SW 4.5 mph - -   Overcast
6:00 PM 46.4 °F 44.3 °F 42.8 °F 87% 30.42 in 6.2 mi SW 4.6 mph - N/A   Mostly Cloudy
7:00 PM 46.4 °F 43.5 °F 42.8 °F 87% 30.42 in 6.2 mi SW 5.8 mph - N/A   Mostly Cloudy
8:00 PM 46.4 °F 41.5 °F 41.0 °F 81% 30.42 in 6.2 mi SSW 10.4 mph - N/A   Mostly Cloudy
8:30 PM 46.4 °F 42.4 °F 41.0 °F 81% 30.42 in 6.2 mi SSW 8.1 mph - N/A   Mostly Cloudy
9:00 PM 46.4 °F 42.4 °F 41.0 °F 81% 30.42 in 6.2 mi SSW 8.1 mph - N/A   Mostly Cloudy
10:00 PM 44.6 °F 39.2 °F 39.2 °F 81% 30.42 in 6.2 mi South 10.4 mph - N/A   Scattered Clouds
11:00 PM 42.8 °F 38.0 °F 39.2 °F 87% 30.42 in 6.2 mi SSW 8.1 mph - N/A   Partly Cloudy